www.pogodaiklimat.ru

Погода и климат >> Архив погоды >> Узбекистан >> Шурчи


ПОГОДА в Шурчи

  • Прогноз погоды в Шурчи
  • Монитор погоды в Шурчи

АРХИВ ПОГОДЫ в Шурчи

Время (UTC), дата Ветер
(напр.,м/с)
 
Видим.   Явления Облачность Т
(С)
Тd
(С)
f
(%)
Тe
(С)
Тes
(С)
Комфортность P
(гПа)
Po
(гПа)
Тmin
(С)
Tmax
(С)
R
(мм)
R24
(мм)
S
(см)
15 18.06 штиль 0 50 км 3/0
[As trans]
+30.4 +12.2 33 +31 +31 жарко 1000.1 951.2 +36.6
18 18.06 штиль 0 н/о ясно +23.4 +14.9 59 +27 +27 душно 1001.8 951.7 +36.6
21 18.06 штиль 0 н/о ясно +19.6 +11.4 59 +21 +21 комфорт 1002.5 951.8
00 19.06 штиль 0 50 км 3/0
[As trans]
+18.6 +11.5 63 +19 +19 1002.5 951.6
03 19.06 штиль 0 50 км 3/0
[As trans]
+22.0 +13.1 57 +25 +32 комфорт 1003.0 952.8
06 19.06 С 2 50 км 3/0
[Ci fib]
+33.4 +10.3 24 +33 +50 жарко 1001.3 952.9 +18.0
12 19.06 штиль 0 50 км 4/0
[As trans]
+36.4 +8.0 18 +35 +41 очень
жарко
999.2 951.3
15 19.06 штиль 0 50 км 3/0
[As trans]
+28.6 +7.6 27 +28 +28 жарко 1001.4 952.2 +37.0
18 19.06 штиль 0 н/о 3/0
[]
+21.6 +7.3 40 +23 +23 комфорт 1002.4 952.0 +37.0
21 19.06 штиль 0 н/о ясно +18.6 +9.3 55 +19 +19 1002.9 952.0
00 20.06 штиль 0 50 км 3/0
[As trans]
+17.0 +7.7 54 +17 +17 1004.0 952.7
03 20.06 штиль 0 50 км 3/0
[As trans]
+22.4 +6.4 35 +23 +30 комфорт 1004.4 954.1
06 20.06 штиль 0 50 км 3/3 600 м
[Cu hum]
+33.0 +4.3 16 +30 +48 жарко 1003.2 954.5 +16.6
09 20.06 В 2 50 км 3/3 600 м
[Cu hum]
+36.0 +7.6 18 +34 +47 очень
жарко
1001.5 953.5
12 20.06 штиль 0 50 км 3/3 600 м
[Cu hum]
+36.6 +7.8 17 +35 +40 очень
жарко
999.6 951.7
15 20.06 штиль 0 50 км ясно +30.0 +7.4 24 +29 +29 жарко 1001.1 952.0 +37.0
18 20.06 штиль 0 н/о ясно +24.0 +9.5 40 +25 +25 комфорт 1002.7 952.6 +37.0
21 20.06 штиль 0 н/о ясно +21.6 +11.1 51 +23 +23 комфорт 1002.7 952.3
00 21.06 СЗ 2 50 км ясно +21.0 +11.9 56 +24 +24 комфорт 1003.7 953.2
03 21.06 В 2 50 км ясно +24.0 +9.8 41 +25 +31 комфорт 1004.5 954.3
09 21.06 В 2 50 км 3/3 600 м
[Cu hum]
+37.8 +10.6 19 +37 +49 очень
жарко
1001.5 953.6
12 21.06 З 2 50 км 3/3 600 м
[Cu hum]
+37.2 +10.2 20 +36 +40 очень
жарко
999.8 952.0
15 21.06 З 2 50 км 3/0
[As trans]
+30.8 +11.9 31 +31 +31 жарко 1000.7 951.8 +39.0
18 21.06 штиль 0 н/о ясно +23.8 +11.9 47 +25 +25 комфорт 1002.8 952.7 +39.0
21 21.06 штиль 0 н/о ясно +20.0 +9.3 50 +21 +21 комфорт 1003.5 952.8
00 22.06 З 2 50 км 3/0
[As trans]
+18.9 +9.9 56 +20 +20 1004.2 953.2
03 22.06 С 1 50 км 4/0
[As trans]
+24.4 +7.3 33 +25 +30 комфорт 1004.4 954.4
06 22.06 штиль 0 50 км 3/3 600 м
[Cu hum]
+33.4 +5.1 17 +31 +49 жарко 1003.6 954.9 +18.5
12 22.06 штиль 0 50 км 4/0
[As trans]
+35.2 +14.4 29 +36 +42 очень
жарко
1001.8 953.6
15 22.06 штиль 0 50 км 3/0
[As trans]
+30.4 +12.5 33 +31 +31 жарко 1002.8 953.8 +38.0
18 22.06 штиль 0 н/о ясно +25.4 +11.3 41 +27 +27 жарко 1003.9 954.1 +38.0
21 22.06 штиль 0 н/о ясно +21.4 +10.6 50 +23 +23 комфорт 1004.6 954.1
00 23.06 штиль 0 50 км 3/0
[As trans]
+20.0 +11.1 57 +21 +21 комфорт 1004.7 953.8
03 23.06 штиль 0 50 км ясно +24.8 +13.7 50 +27 +35 жарко 1004.2 964.4
06 23.06 штиль 0 50 км 3/3 600 м
[Cu hum]
+33.0 +14.5 33 +35 +52 опасность
солнечного
удара
1003.7 955.1 +19.4
09 23.06 С 2 50 км 3/3 600 м
[Cu hum As trans]
+35.8 +13.7 27 +37 +49 душно 1002.0 954.0
12 23.06 С 9 10 км {метель} 8/4
[Cu med, cong As trans]
+29.6 +10.7 31 +30 +30 жарко 1004.7 955.4
15 23.06 С 5 50 км 5/0
[As trans]
+27.0 +12.4 40 +28 +28 жарко 1006.5 956.9 +36.8
18 23.06 Ю 2 н/о ясно +23.0 +11.9 50 +26 +26 жарко 1007.1 956.8 +36.8
21 23.06 штиль 0 н/о 3/0
[As trans]
+20.8 +9.9 50 +22 +22 комфорт 1007.9 957.0
00 24.06 штиль 0 50 км 3/0
[As trans]
+17.8 +9.7 59 +18 +18 1008.9 957.5
03 24.06 С 2 50 км 4/0
[As trans]
+20.2 +10.0 52 +22 +27 комфорт 1009.6 958.7
06 24.06 Ю 2 50 км 6/0
[As trans]
+31.0 +7.7 23 +30 +42 жарко 1008.5 959.2 +17.4
09 24.06 Ю 2 50 км 5/3 600 м
[Cu med, cong As trans]
+35.0 +6.7 17 +33 +43 жарко 1006.4 957.9
12 24.06 В 2 50 км 5/4 600 м
[Cu med, cong]
+34.6 +5.6 17 +32 +36 жарко 1004.7 956.3
15 24.06 З 6 50 км {гроза} 6/5 600 м
[Cu med, cong]
+28.6 +10.3 32 +29 +29 жарко 1007.7 958.2 +36.6
03 25.06 З 2 50 км ясно +25.2 +7.4 32 +25 +31 комфорт 1009.0 958.8

 

Местоположение метеостанции Шурчи (Сухрандарьинская область, Узбекистан): широта 38.00 долгота 67.80 высота над уровнем моря 448 м.

В архиве по умолчанию представлена погода в Шурчи за последнюю неделю. Архивные данные за месяц целиком и за предыдущие месяцы, начиная с января 2011 года, Вы можете получить, выбрав интересующий диапазон дат из раскрывающегося списка и нажав кнопку "Ввод!".


*Определитесь, кто Вы:
робот инопланетянин человек

Внимание! Время в таблицах - всемирное. Для получения местного времени необходимо прибавить поправку, которая равна 5 ч.

Смотрите также архив погоды в соседних городах и на ближайших метеорологических станциях:

Погода в Денау (Сухрандарьинская область, Узбекистан) (31 км)
Погода в Байсуне (Сухрандарьинская область, Узбекистан) (57 км)
Погода в Ганжине (Таджикистан) (68 км)
Погода в Исанбай (Таджикистан) (75 км)
Погода в Ширабаде (Сухрандарьинская область, Узбекистан) (78 км)
Погода в Курган-Тюбе (Таджикистан) (88 км)
Погода в Акрабате (Узбекистан) (89 км)
Погода в Термезе (Сухрандарьинская область, Узбекистан) (98 км)
Погода в Минчукуре (Кашкадарьинская область, Узбекистан) (105 км)
Погода в Душанбе (Таджикистан) (105 км)

Пояснения к столбцам:

Ветер - указаны скорость ветра в м/с - средняя за 10 мин, порывы в срок и между сроками (в фигурных скобках) и направление, откуда дует ветер: С - северный, СВ - северо-восточный, В - восточный, ЮВ - юго-восточный, Ю - южный, ЮЗ - юго-западный, З - западный, СЗ - северо-западный.
Видимость - горизонтальная дальность видимости в метрах или километрах. При видимости от 1 до 10 км при отсутствии осадков обычно наблюдается дымка, при ухудшении видимости до 1 км и менее - туман. В сухую погоду видимость может ухудшаться дымом, пылью или мглою.
Явления - указаны атмосферные явления, наблюдавшиеся в срок или в последний час перед сроком; фигурными скобками обозначены явления, наблюдавшиеся между сроками (за 1-3 часа до срока); квадратными скобками обозначены град или гололедные отложения с указанием их диаметра в мм.
Облачность - указаны через наклонную черту общая и нижняя облачность в баллах и высота нижней границы облаков в метрах; квадратными скобками обозначены формы облаков: Ci - перистые, Cs - перисто-слоистые, Cc - перисто-кучевые, Ac - высококучевые, As - высокослоистые, Sc - слоисто-кучевые, Ns - слоисто-дождевые, Cu - кучевые, Cb - кучево-дождевые. Подробнее классификацию облаков см. в Атласе облаков (PDF).
T - Температура воздуха - температура, измеренная на высоте 2 м над землей.
Td - Температура точки росы - температура, при понижении до которой содержащийся в воздухе водяной пар достигнет насыщения.
f - Относительная влажность воздуха - влажноcть воздуха, измеренная на высоте 2 м над землей.
Te - Эффективная температура - температура, которую ощущает одетый по сезону человек в тени. Характеристика душности погоды. При расчете учитывается влияние влажности воздуха и скорости ветра на теплоощущения человека.
Tes - Эффективная температура на солнце - температура, которую ощущает человек, с поправкой на солнечный нагрев. Характеристика знойности погоды. Зависит от высоты солнца над горизонтом, облачности и скорости ветра. Ночью, в пасмурную погоду, а также при ветре 12 м/с и более поправка равна нулю.
P - Атмосферное давление - приведенное к уровню моря атмосферное давление.
Po - Атмосферное давление - измеренное на уровне метеостанции атмосферное давление.
Tmin - Минимальная температура - минимум температуры воздуха на высоте 2 м над землей.
Tmax - Максимальная температура - максимум температуры воздуха на высоте 2 м над землей.
R - Количество осадков - Количество выпавших осадков за период времени, мм. При наведении курсора мыши на число - период времени, за который выпало указанное количество осадков.
R24 - Количество осадков - Количество выпавших осадков за 24 часа, мм.
S - Снежный покров - Высота снежного покрова, см. При наведении курсора мыши на число - состояние снежного покрова и степень покрытия местности в баллах.